Track OPS 4682 (SNAPSHOT) now! 10-day predictions OPS 4682 (SNAPSHOT) is classified as:
1 01314U 65027A 25134.97266450 -.00000002 00000-0 -32650-4 0 9997 2 01314 90.2385 357.5858 0028682 248.1210 184.2791 12.91796366579613